Weston Point, United Kingdom

11:41 AM GMT on December 05, 2016 (GMT +0000)
Liverpool

Weather History for EGGP - March, 2013

Change the Weather History Date:

Saturday, March 16, 2013

  Actual Average Record
Temperature  
Mean Temperature 42 °F -  
Max Temperature 46 °F 49 °F 60 °F (1999)
Min Temperature 37 °F 39 °F 32 °F (2003)
Degree Days  
Heating Degree Days 24    
Moisture  
Dew Point 38 °F    
Average Humidity 89    
Maximum Humidity 100    
Minimum Humidity 76    
Precipitation  
Precipitation 0.00 in - - ()
Sea Level Pressure  
Sea Level Pressure 29.27 in    
Wind  
Wind Speed 6 mph ()    
Max Wind Speed 12 mph    
Max Gust Speed -    
Visibility 6.1 miles    
Events Rain    
Averages and records for this station are not official NWS values.
T = Trace of Precipitation, MM = Missing Value Source: Averaged Metar Reports

Daily Weather History Graph

Daily Weather History Graph

Search for Another Location

Airport or City:

Trip Planner

Search our weather history database for the weather conditions in past years. The results will help you decide how hot, cold, wet, or windy it might be!

Date:

Astronomy

Mar. 16, 2013 Rise Set
Actual Time 6:23 AM GMT 6:17 PM GMT
Civil Twilight 5:48 AM GMT 6:52 PM GMT
Nautical Twilight 5:08 AM GMT 7:33 PM GMT
Astronomical Twilight 4:25 AM GMT 8:15 PM GMT
Moon 8:01 AM GMT (3/16) 11:58 PM GMT (3/16)
Length of Visible Light 13h 03m
Length of Day
11h 54m
Waxing Crescent, 21% of the Moon is Illuminated
Mar 16
Waxing Crescent
Mar 19
First Quarter
Mar 27
Full
Apr 3
Last Quarter
Apr 10
New

Hourly Weather History & Observations

Time (GMT) Temp. Windchill Dew Point Humidity Pressure Visibility Wind Dir Wind Speed Gust Speed Precip Events Conditions
12:20 AM 41.0 °F 37.1 °F 39.2 °F 93% 29.39 in 6.2 mi SSE 5.8 mph - N/A   Light Drizzle
12:50 AM 41.0 °F 36.4 °F 39.2 °F 93% 29.36 in 6.2 mi SSE 6.9 mph - N/A Rain Light Rain
1:20 AM 41.0 °F 36.4 °F 39.2 °F 93% 29.36 in 6.2 mi SSE 6.9 mph - N/A Rain Light Rain
1:50 AM 41.0 °F 35.8 °F 39.2 °F 93% 29.36 in 6.2 mi South 8.1 mph - N/A Rain Light Rain
2:20 AM 41.0 °F 36.4 °F 39.2 °F 93% 29.33 in 6.2 mi South 6.9 mph - N/A Rain Light Rain
2:50 AM 41.0 °F 37.1 °F 39.2 °F 93% 29.33 in 6.2 mi SSE 5.8 mph - N/A Rain Light Rain
3:20 AM 39.2 °F 34.2 °F 39.2 °F 100% 29.30 in 6.2 mi SSE 6.9 mph - N/A Rain Light Rain
3:50 AM 39.2 °F 34.2 °F 37.4 °F 93% 29.30 in 6.2 mi SE 6.9 mph - N/A Rain Light Rain
4:20 AM 39.2 °F 35.0 °F 37.4 °F 93% 29.30 in 6.2 mi SE 5.8 mph - N/A Rain Light Rain
5:20 AM 39.2 °F 37.0 °F 37.4 °F 93% 29.27 in 6.2 mi SE 3.5 mph - N/A Rain Light Rain
5:50 AM 39.2 °F 37.0 °F 37.4 °F 93% 29.27 in 6.2 mi SE 3.5 mph - N/A   Mostly Cloudy
6:20 AM 39.2 °F 35.9 °F 37.4 °F 93% 29.27 in 6.2 mi ESE 4.6 mph - N/A Rain Light Rain
6:50 AM 39.2 °F 35.0 °F 39.2 °F 100% 29.27 in 5.6 mi SE 5.8 mph - N/A Rain Light Rain
7:20 AM 39.2 °F 35.9 °F 37.4 °F 93% 29.27 in 5.0 mi South 4.6 mph - N/A Rain Light Rain
7:50 AM 39.2 °F 35.0 °F 39.2 °F 100% 29.27 in 5.6 mi South 5.8 mph - N/A Rain Light Rain
8:20 AM 39.2 °F 35.9 °F 39.2 °F 100% 29.27 in 6.2 mi SSW 4.6 mph - N/A   Mostly Cloudy
8:50 AM 41.0 °F 39.0 °F 39.2 °F 93% 29.27 in 6.2 mi WSW 3.5 mph - N/A   Scattered Clouds
9:20 AM 41.0 °F 39.0 °F 39.2 °F 93% 29.27 in 6.2 mi Variable 3.5 mph - N/A   Scattered Clouds
9:50 AM 41.0 °F 37.1 °F 39.2 °F 93% 29.27 in 6.2 mi South 5.8 mph - N/A   Scattered Clouds
10:20 AM 42.8 °F 38.6 °F 39.2 °F 87% 29.27 in 6.2 mi SSW 6.9 mph - N/A   Scattered Clouds
10:50 AM 44.6 °F 41.4 °F 41.0 °F 87% 29.27 in 6.2 mi SSW 5.8 mph - N/A   Scattered Clouds
11:20 AM 44.6 °F 41.4 °F 39.2 °F 81% 29.27 in 6.2 mi SW 5.8 mph - N/A   Scattered Clouds
11:50 AM 46.4 °F 44.3 °F 39.2 °F 76% 29.27 in 6.2 mi WSW 4.6 mph - N/A   Scattered Clouds
12:20 PM 44.6 °F - 37.4 °F 76% 29.27 in 6.2 mi South 2.3 mph - N/A Rain Light Rain Showers
12:50 PM 44.6 °F 41.4 °F 37.4 °F 76% 29.27 in 6.2 mi West 5.8 mph - N/A   Scattered Clouds
1:20 PM 44.6 °F 40.7 °F 37.4 °F 76% 29.27 in 6.2 mi WNW 6.9 mph - N/A   Scattered Clouds
2:20 PM 44.6 °F 40.2 °F 39.2 °F 81% 29.24 in 6.2 mi West 8.1 mph - N/A   Scattered Clouds
2:50 PM 44.6 °F 41.4 °F 37.4 °F 76% 29.24 in 6.2 mi West 5.8 mph - N/A   Scattered Clouds
3:20 PM 44.6 °F 41.4 °F 37.4 °F 76% 29.24 in 6.2 mi WNW 5.8 mph - N/A   Scattered Clouds
3:50 PM 44.6 °F 38.8 °F 37.4 °F 76% 29.24 in 6.2 mi WNW 11.5 mph - N/A   Scattered Clouds
4:20 PM 42.8 °F 37.0 °F 35.6 °F 76% 29.24 in 6.2 mi NW 10.4 mph - N/A   Scattered Clouds
4:50 PM 42.8 °F 37.0 °F 35.6 °F 76% 29.24 in 6.2 mi NW 10.4 mph - N/A   Scattered Clouds
5:20 PM 41.0 °F 35.2 °F 35.6 °F 81% 29.24 in 6.2 mi NNW 9.2 mph - N/A Rain Light Rain Showers
5:50 PM 39.2 °F 35.0 °F 35.6 °F 87% 29.27 in 6.2 mi North 5.8 mph - N/A Rain Rain
6:20 PM 39.2 °F 37.0 °F 35.6 °F 87% 29.27 in 6.2 mi NNW 3.5 mph - N/A   Mostly Cloudy
6:50 PM 41.0 °F 39.0 °F 37.4 °F 87% 29.24 in 6.2 mi NNW 3.5 mph - N/A   Mostly Cloudy
7:20 PM 41.0 °F 39.0 °F 37.4 °F 87% 29.24 in 6.2 mi NNW 3.5 mph - N/A   Mostly Cloudy
7:50 PM 39.2 °F 34.2 °F 37.4 °F 93% 29.24 in 6.2 mi Variable 6.9 mph - N/A   Mostly Cloudy
8:20 PM 39.2 °F 33.0 °F 37.4 °F 93% 29.24 in 6.2 mi NNW 9.2 mph - N/A   Mostly Cloudy
8:50 PM 39.2 °F 33.0 °F 37.4 °F 93% 29.24 in 6.2 mi NNW 9.2 mph - N/A Rain Light Rain
9:20 PM 37.4 °F 30.8 °F 35.6 °F 93% 29.24 in 6.2 mi NW 9.2 mph - N/A Rain Light Rain
9:50 PM 37.4 °F 30.8 °F 35.6 °F 93% 29.24 in 5.6 mi NNW 9.2 mph - N/A Rain Light Rain
10:20 PM 37.4 °F 31.4 °F 35.6 °F 93% 29.24 in 5.6 mi NNW 8.1 mph - N/A Rain Rain
10:50 PM 37.4 °F 32.1 °F 35.6 °F 93% 29.24 in 5.6 mi North 6.9 mph - N/A Rain Rain
11:20 PM 37.4 °F 33.8 °F 37.4 °F 100% 29.24 in 5.6 mi NNW 4.6 mph - N/A Rain Rain
11:50 PM 39.2 °F 37.0 °F 37.4 °F 93% 29.24 in 6.2 mi Variable 3.5 mph - N/A Rain Rain